Preview of NWS' New Version of Forecast
This preview is not operational and should not be used for support decisions.

Regional Weather Roundup (RWR)

Issued by National Weather Service (NWS)

                            
000
ASUS42 KTBW 190416
RWRFL 
FLORIDA REGIONAL WEATHER ROUNDUP
NATIONAL WEATHER SERVICE TAMPA BAY RUSKIN FL
1200 AM EDT TUE MAR 19 2019

NOTE: "FAIR" INDICATES FEW OR NO CLOUDS BELOW 12,000 FEET WITH NO
SIGNIFICANT WEATHER AND/OR OBSTRUCTIONS TO VISIBILITY.

FLZ001>010-012>015-112-114-115-190500-
PANHANDLE FLORIDA
  
CITY           SKY/WX    TMP DP  RH WIND       PRES   REMARKS
PENSACOLA      FAIR      57  36  45 N8        30.26S                  
PENSACOLA NAS  FAIR      57  38  48 N10       30.26S                  
MILTON NAS     FAIR      52  38  58 N3        30.27                   
CRESTVIEW      FAIR      56  33  42 N5        30.28S                  
DUKE FIELD     FAIR      51  39  63 N3        30.26S                  
VALPARAISO     FAIR      55  35  47 N7        30.25S                  
MARY ESTHER    CLOUDY    53  36  52 N8        30.24S                  
PANAMA CITY    FAIR      56  39  53 NW7       30.24R                  
TYNDALL AFB    FAIR      59  35  41 N10       30.22S                  
APALACHICOLA   FAIR      55  40  56 N3        30.22R                  

STATION/POSITION SKY/WX   TEMP    WIND        PRES    WAVE   SWELL
                          AIR SEA DIR/SP/G            HT/PER HT/PER
                          (F)     (DEG/KT/KT) (MB)    (FT/S) (FT/S)
30.1N   87.6W              62      10/ 16/ 19 1024.7R   2/ 4
29.2N   88.2W                      30/ 19/ 25 1023.9
PANAMA CITY BEAC           58 65  360/  7/ 10 1024.2R
TOWER C                    63      20/ 14/ 15 1023.4R

$$
FLZ011-016>038-118-127-128-134-139-239-190500-
NORTH FLORIDA
  
CITY           SKY/WX    TMP DP  RH WIND       PRES   REMARKS
MARIANNA       FAIR      56  36  47 N6        30.24S                  
TALLAHASSEE    FAIR      56  41  57 N6        30.22S                  
PERRY          FAIR      56  42  59 N3        30.20F                  
LIVE OAK       MOCLDY    54  43  66 CALM      30.20F                  
CROSS CITY     FAIR      53  44  72 CALM      30.19F                  
LAKE CITY      FAIR      54  41  62 N3        30.20S                  
GAINESVILLE    FAIR      59  40  49 N3        30.22S                  
WILLISTON        N/A    N/A N/A N/A MISG        N/A                   
PALATKA        FAIR     N/A N/A N/A CALM      30.19F                  
MAYPORT NAS    CLOUDY    59  50  72 W3        30.19R                  
JACKSONVILLE   CLOUDY    53  45  74 CALM      30.19R                  
JAX NAS        CLOUDY    60  42  51 NW3       30.20R                  
JAX CECIL      FAIR     N/A N/A N/A CALM      30.19S                  
FERNANDINA BEA FAIR      54  45  72 CALM      30.20R                  
ST AUGUSTINE   FAIR      57  47  69 NW5       30.19S                  
PALM COAST     FAIR      60  42  53 N3        30.18S                  

STATION/POSITION SKY/WX   TEMP    WIND        PRES    WAVE   SWELL
                          AIR SEA DIR/SP/G            HT/PER HT/PER
                          (F)     (DEG/KT/KT) (MB)    (FT/S) (FT/S)
SHELL POINT      NOT AVBL
KEATON BEACH               56      CALM  /  1 1023.0F
CEDAR KEY                  60      20/  5/  6 1022.2R
FERNANDINA                 58 63   CALM  /  1 1023.1R
30.7N   81.3W                 62                N/A     3/ 8
MAYPORT                    60 63  300/  2/  3 1022.3R
31.4N   80.9W              61 62  280/  4/  4 1022.2S   3/ 8   3/ 8
ST AUGUSTINE               63 62  360/ 10/ 11 1022.1S

$$
FLZ040-043>046-052-053-057-058-063-144-190500-
INTERIOR CENTRAL FLORIDA
  
CITY           SKY/WX    TMP DP  RH WIND       PRES   REMARKS
OCALA          FAIR      58  38  47 CALM      30.20S                  
LEESBURG       CLOUDY    61  36  39 N9        30.18S                  
SANFORD        LGT RAIN  60  48  64 N7        30.17R                  
ORLANDO EXEC   LGT RAIN  61  48  62 N10       30.16R                  
ORLANDO INTL   LGT RAIN  60  47  61 N13       30.16R                  
KISSIMMEE      LGT RAIN  61  47  59 N10       30.17S                  
WINTER HAVEN   LGT RAIN  59  47  64 N8        30.16F                  
BARTOW         CLOUDY    61  48  63 N10G17    30.15S                  
SEBRING        LGT RAIN  58  55  88 N12       30.13S                  
OKEECHOBEE     LGT RAIN  59  55  88 N9        30.10S                  

$$
FLZ041-047-054-059-064-141-147-190500-
EAST CENTRAL FLORIDA
  
CITY           SKY/WX    TMP DP  RH WIND       PRES   REMARKS
DAYTONA BEACH  CLOUDY    63  46  54 N9        30.17R                  
DELAND         CLOUDY    59  45  58 N7        30.17S                  
JFK SPACE CTR  CLOUDY    64  52  65 N8G17     30.13S                  
CAPE CANAVERAL DRIZZLE   64  56  77 N10       30.12S                  
PATRICK AFB    DRIZZLE   66  59  77 N14       30.12S                  
MELBOURNE      LGT RAIN  65  58  78 N13       30.12R                  
VERO BEACH     LGT RAIN  66  61  84 N13G21    30.10S                  
FT PIERCE      CLOUDY    67  61  81 N8G16     30.09S                  
STUART         CLOUDY    68  63  83 N10       30.08F                  

STATION/POSITION SKY/WX   TEMP    WIND        PRES    WAVE   SWELL
                          AIR SEA DIR/SP/G            HT/PER HT/PER
                          (F)     (DEG/KT/KT) (MB)    (FT/S) (FT/S)
28.5N   80.2W              70      30/ 17/ 23 1020.4S   6/ 7   2/ 8
28.9N   78.5W              70 74   20/ 19/ 25 1019.8F   7/ 8   3/ 8
TRIDENT PIER               64 68  350/  8/ 11 1021.5R
28.4N   80.5W                 67                N/A     3/ 7
27.5N   80.2W                 69                N/A     6/ 5   2/11

$$
FLZ050-056-061-142-242-148-248-149-249-151-251-155-255-
160-260-190500-
WEST CENTRAL FLORIDA
  
CITY           SKY/WX    TMP DP  RH WIND       PRES   REMARKS
CRYSTAL RIVER  FAIR      59  36  41 CALM      30.19S                  
INVERNESS      MOCLDY    61  37  41 N6        30.20R                  
BROOKSVILLE    FAIR      61  36  39 NE5       30.18S                  
CLEARWATER AIR CLOUDY    59  45  58 NE6       30.17R                  
ST PETE CLEARW LGT RAIN  62  47  57 NE13      30.17R                  
TAMPA INTL     LGT RAIN  61  47  59 NE8       30.17S                  
TAMPA EXEC     LGT RAIN  55  46  71 N3        30.18R                  
PLANT CITY     DRIZZLE   61  46  59 N7        30.18S                  
MACDILL AFB    LGT RAIN  59  52  78 NE8       30.16R                  
PETER O KNIGHT LGT RAIN  61  48  63 NE14      30.17S                  
ST PETERSBURG  LGT RAIN  64  54  69 NE17      30.15R                  
SARASOTA       LGT RAIN  60  57  89 NE8       30.13R                  
VENICE         CLOUDY    59  57  94 NE15      30.15R FOG              

STATION/POSITION SKY/WX   TEMP    WIND        PRES    WAVE   SWELL
                          AIR SEA DIR/SP/G            HT/PER HT/PER
                          (F)     (DEG/KT/KT) (MB)    (FT/S) (FT/S)
27.3N   84.2W                 72                N/A     7/ 7
CLEARWATER BEACH           63 72   20/  9/ 12 1021.6R
MIDDLE TAMPA BAY           64      50/ 19/ 24 1021.5R
VENICE                     59 73   30/ 11/ 14 1020.5R

$$
FLZ066-069-070-075>078-162-262-165-265-190500-
SOUTHWEST FLORIDA AND KEYS
  
CITY           SKY/WX    TMP DP  RH WIND       PRES   REMARKS
PUNTA GORDA    LGT RAIN  60  55  83 N13       30.14R                  
FT MYERS       CLOUDY    61  54  77 NE15      30.10S                  
SOUTHWEST INTL LGT RAIN  62  55  77 NE12      30.11R                  
NAPLES         CLOUDY    65  58  78 NE16G23   30.06S                  
MARCO ISLAND   LGT RAIN  65  59  81 N14G21    30.08S                  
IMMOKALEE      CLOUDY    63  57  82 N9G21     30.08S                  
MARATHON       FAIR      76  69  79 NE13      30.01S                  
KEY WEST NAS   CLOUDY    76  67  73 NE16G22   30.01R                  
KEY WEST INTL  CLOUDY    76  68  76 NE10G22   30.01S                  

STATION/POSITION SKY/WX   TEMP    WIND        PRES    WAVE   SWELL
                          AIR SEA DIR/SP/G            HT/PER HT/PER
                          (F)     (DEG/KT/KT) (MB)    (FT/S) (FT/S)
NAPLES                     65 76   50/ 11/ 19 1018.6R
26.0N   85.6W              67 79   50/ 23/ 27 1019.6
DRY TORTUGAS               74      30/ 17/ 19 1016.7F
SAND KEY                   76                 1016.1R
SOMBRERO KEY               75                 1015.5F
MOLASSES REEF                      40/  8       N/A

$$
FLZ067-068-071>074-168-172>174-190500-
SOUTHEAST FLORIDA 
  
CITY           SKY/WX    TMP DP  RH WIND       PRES   REMARKS
W PALM BEACH   LGT RAIN  70  66  87 NE13      30.04F FOG              
FT LAUDER-EXEC MOCLDY    70  67  90 N7        30.03F                  
FT LAUDERDALE  CLOUDY    70  64  81 N10       30.03F                  
POMPANO BEACH  RAIN      71  67  87 N8        30.04F FOG              
PEMBROKE PINES FAIR      70  64  81 N12       30.05F                  
OPA LOCKA      FAIR      71  64  78 N10       30.04F                  
MIAMI          CLOUDY    71  66  84 N8        30.03F                  
WEST KENDALL   FAIR      71  65  81 N12       30.03F                  
HOMESTEAD      CLOUDY    72  65  79 N9        30.01F                  

STATION/POSITION SKY/WX   TEMP    WIND        PRES    WAVE   SWELL
                          AIR SEA DIR/SP/G            HT/PER HT/PER
                          (F)     (DEG/KT/KT) (MB)    (FT/S) (FT/S)
PORT EVERGLADES            71     320/  8/ 13 1017.2S
VIRGINIA KEY               72 79   10/  4/  8 1016.3S
LAKE WORTH                 68 77   30/ 26/ 29 1018.4F
FOWEY ROCKS                71 77   10/ 13/ 15 1017.2F
SETTLEMENT POINT           71      30/ 21/ 22 1017.4S

$$